����,���ϕ���(m/s),���ϕ���,�ő�u�ԕ���(m/s),�ő啗��������,�C��(��),���x(%),10���Ԉړ��ώZ�J��(mm),1���Ԉړ��ώZ�J��(mm),���J��(mm),�݌v�J��(mm)
2019-09-23T00:00:00+09:00,0.8,�k�k��,2.5,�k�k��,22.7,93.9,0,0.5,5,19.5
2019-09-23T00:01:00+09:00,0.9,�k�k��,2.5,�k�k��,22.7,94.1,0,0.5,0,19.5
2019-09-23T00:02:00+09:00,1,�k�k��,2.5,�k�k��,22.8,93.9,0,0.5,0,19.5
2019-09-23T00:03:00+09:00,1.1,�k�k��,2.5,�k�k��,22.8,93.8,0,0.5,0,19.5
2019-09-23T00:04:00+09:00,1.2,�k�k��,2.5,�k�k��,22.8,93.5,0,0.5,0,19.5
2019-09-23T00:05:00+09:00,1.3,�k�k��,2.5,�k�k��,22.8,93.3,0,0.5,0,19.5
2019-09-23T00:06:00+09:00,1.3,�k�k��,2.5,�k�k��,22.9,93.1,0,0.5,0,19.5
2019-09-23T00:07:00+09:00,1.4,�k�k��,2.5,�k�k��,22.9,92.9,0,0.5,0,19.5
2019-09-23T00:08:00+09:00,1.5,�k��,2.5,�k�k��,23.1,92.2,0,0.5,0,19.5
2019-09-23T00:09:00+09:00,1.5,�k��,3.9,���쓌,23.2,91.5,0,0.5,0,19.5
2019-09-23T00:10:00+09:00,1.6,�k��,4.6,��,23.3,90.9,0,0.5,0,19.5
2019-09-23T00:11:00+09:00,1.8,���k��,4.6,��,23.3,90.4,0,0.5,0,19.5
2019-09-23T00:12:00+09:00,1.9,���k��,4.6,��,23.4,90.1,0,0.5,0,19.5
2019-09-23T00:13:00+09:00,2,���k��,4.6,��,23.4,89.6,0,0.5,0,19.5
2019-09-23T00:14:00+09:00,2,��,4.6,��,23.4,89.4,0,0.5,0,19.5
2019-09-23T00:15:00+09:00,2.1,��,5.1,���쓌,23.5,89.1,0,0.5,0,19.5
2019-09-23T00:16:00+09:00,2.3,��,5.1,���쓌,23.6,88.5,0,0.5,0,19.5
2019-09-23T00:17:00+09:00,2.4,��,5.1,���쓌,23.6,88.2,0,0.5,0,19.5
2019-09-23T00:18:00+09:00,2.4,���쓌,5.1,���쓌,23.6,88.1,0,0.5,0,19.5
2019-09-23T00:19:00+09:00,2.4,���쓌,5.1,���쓌,23.6,88.2,0,0.5,0,19.5
2019-09-23T00:20:00+09:00,2.3,��,5.1,���쓌,23.6,88.1,0,0.5,0,19.5
2019-09-23T00:21:00+09:00,2.2,��,5.1,���쓌,23.6,88.1,0,0.5,0,19.5
2019-09-23T00:22:00+09:00,2.1,��,5.1,���쓌,23.7,87.9,0,0.5,0,19.5
2019-09-23T00:23:00+09:00,2.1,��,5.1,���쓌,23.7,87.6,0,0.5,0,19.5
2019-09-23T00:24:00+09:00,2,��,5.1,���쓌,23.7,87.5,0,0.5,0,19.5
2019-09-23T00:25:00+09:00,1.9,��,5,���쓌,23.8,87.2,0,0.5,0,19.5
2019-09-23T00:26:00+09:00,1.7,��,4.3,��,23.8,86.8,0,0.5,0,19.5
2019-09-23T00:27:00+09:00,1.7,��,4.3,��,23.9,86.5,0,0.5,0,19.5
2019-09-23T00:28:00+09:00,1.8,��,4.3,��,24,86,0,0.5,0,19.5
2019-09-23T00:29:00+09:00,1.9,��,6.3,��쓌,24.1,85.4,0,0.5,0,19.5
2019-09-23T00:30:00+09:00,,,,,,,,,,
2019-09-23T00:31:00+09:00,2,��,6.3,��쓌,24.4,83.8,0,0.5,0,19.5
2019-09-23T00:32:00+09:00,2.1,��,6.3,��쓌,24.5,83.4,0,0.5,0,19.5
2019-09-23T00:33:00+09:00,2.1,���쓌,6.3,��쓌,24.3,83.5,0,0.5,0,19.5
2019-09-23T00:34:00+09:00,2.1,���쓌,6.3,��쓌,24.3,83.8,0,0,0,19.5
2019-09-23T00:35:00+09:00,2,���쓌,6.3,��쓌,24.3,83.7,0,0,0,19.5
2019-09-23T00:36:00+09:00,2.1,���쓌,6.3,��쓌,24.5,83.4,0,0,0,19.5
2019-09-23T00:37:00+09:00,2.1,���쓌,6.3,��쓌,24.4,83.3,0,0,0,19.5
2019-09-23T00:38:00+09:00,2,���쓌,6.3,��쓌,24.3,83.7,0,0,0,19.5
2019-09-23T00:39:00+09:00,1.8,�쓌,4.9,���쓌,24.1,84.3,0.5,0.5,0.5,20
2019-09-23T00:40:00+09:00,1.8,�쓌,4.9,���쓌,24,85.1,1,1,1,20.5
2019-09-23T00:41:00+09:00,1.9,�쓌,6.8,��쓌,23.9,85.7,1,1,1,20.5
2019-09-23T00:42:00+09:00,2.2,��쓌,9.8,��,24.2,85.6,1.5,1.5,1.5,21
2019-09-23T00:43:00+09:00,2.5,��쓌,9.8,��,24.2,85.3,1.5,1.5,1.5,21
2019-09-23T00:44:00+09:00,3,��쓌,10,��쓌,24.1,85.6,2,2,2,21.5
2019-09-23T00:45:00+09:00,3.3,��쓌,10,��쓌,24,86.4,2.5,2.5,2.5,22
2019-09-23T00:46:00+09:00,3.7,��,10,��쓌,23.9,86.9,2.5,2.5,2.5,22
2019-09-23T00:47:00+09:00,3.9,��,10,��쓌,23.9,87.3,2.5,2.5,2.5,22
2019-09-23T00:48:00+09:00,4.1,��,10,��쓌,23.9,87.4,3,3,3,22.5
2019-09-23T00:49:00+09:00,4.7,��쓌,10,��쓌,24,87.2,3,3.5,3.5,23
2019-09-23T00:50:00+09:00,5.1,��쓌,10,��쓌,23.9,87.4,3,4,4,23.5
2019-09-23T00:51:00+09:00,5.1,��쓌,10,��쓌,23.9,87.5,3,4,4,23.5
2019-09-23T00:52:00+09:00,4.7,��쓌,10,��쓌,23.7,88.3,2.5,4,4,23.5
2019-09-23T00:53:00+09:00,4.6,��쓌,10,��쓌,23.8,88.7,3,4.5,4.5,24
2019-09-23T00:54:00+09:00,4.6,��쓌,10.4,��,23.9,88.4,2.5,4.5,4.5,24
2019-09-23T00:55:00+09:00,4.7,��쓌,10.4,��,24.1,87.7,2,4.5,4.5,24
2019-09-23T00:56:00+09:00,4.8,��쓌,10.4,��,24.1,87.4,2,4.5,4.5,24
2019-09-23T00:57:00+09:00,4.7,��쓌,10.4,��,24,87.4,2.5,5,5,24.5
2019-09-23T00:58:00+09:00,4.5,��쓌,10.4,��,23.7,88.2,2,5,5,24.5
2019-09-23T00:59:00+09:00,4.2,��쓌,10.4,��,23.6,89,1.5,5,5,24.5
2019-09-23T01:00:00+09:00,4.1,��쓌,10.4,��,23.6,89.7,1.5,5.5,5.5,25
2019-09-23T01:01:00+09:00,4.2,��쓌,10.4,��,23.6,89.9,1.5,5.5,5.5,25
2019-09-23T01:02:00+09:00,4.5,��쓌,10.4,��,23.6,90.1,1.5,5.5,5.5,25
2019-09-23T01:03:00+09:00,4.6,��쓌,10.4,��,23.7,89.8,1,5.5,5.5,25
2019-09-23T01:04:00+09:00,4.5,��쓌,10,��쓌,23.6,90.1,1.5,6,6,25.5
2019-09-23T01:05:00+09:00,4.1,��쓌,10,��쓌,23.4,90.6,1.5,6,6,25.5
2019-09-23T01:06:00+09:00,,,,,,,,,,
2019-09-23T01:07:00+09:00,3.8,�쓌,10,��쓌,23.4,91.6,1,6,6,25.5
2019-09-23T01:08:00+09:00,3.8,�쓌,10,��쓌,23.3,91.9,1.5,6.5,6.5,26
2019-09-23T01:09:00+09:00,4,�쓌,10,��쓌,23.2,92.4,1.5,6.5,6.5,26
2019-09-23T01:10:00+09:00,3.9,�쓌,10,��쓌,23.3,92.4,1,6.5,6.5,26
2019-09-23T01:11:00+09:00,3.9,�쓌,10,��쓌,23.3,92.3,1,6.5,6.5,26
2019-09-23T01:12:00+09:00,3.9,�쓌,10,��쓌,23.4,92,1.5,7,7,26.5
2019-09-23T01:13:00+09:00,4,�쓌,9.5,�쓌,23.4,91.8,1.5,7,7,26.5
2019-09-23T01:14:00+09:00,3.9,�쓌,9.5,�쓌,23.4,91.9,1.5,7.5,7.5,27
2019-09-23T01:15:00+09:00,4.1,�쓌,9.5,�쓌,23.4,92,2,8,8,27.5
2019-09-23T01:16:00+09:00,4.4,�쓌,9.5,�쓌,23.4,91.8,2,8,8,27.5
2019-09-23T01:17:00+09:00,4.6,�쓌,9.5,�쓌,23.4,92,2.5,8.5,8.5,28
2019-09-23T01:18:00+09:00,4.8,�쓌,9.5,�쓌,23.3,92.1,2,8.5,8.5,28
2019-09-23T01:19:00+09:00,4.8,�쓌,9.5,�쓌,23.4,92.2,2,8.5,8.5,28
2019-09-23T01:20:00+09:00,4.8,�쓌,9.5,�쓌,23.3,92.1,2.5,9,9,28.5
2019-09-23T01:21:00+09:00,4.8,�쓌,9.1,��쓌,23.3,92.3,3,9.5,9.5,29
2019-09-23T01:22:00+09:00,4.6,�쓌,9,��쓌,23.3,92.4,2.5,9.5,9.5,29
2019-09-23T01:23:00+09:00,4.3,�쓌,9,��쓌,23.3,92.8,2.5,9.5,9.5,29
2019-09-23T01:24:00+09:00,4.2,�쓌,9,��쓌,23.2,92.9,2,9.5,9.5,29
2019-09-23T01:25:00+09:00,4.3,�쓌,9,��쓌,23.3,93.1,2,10,10,29.5
2019-09-23T01:26:00+09:00,4,�쓌,8.6,��쓌,23.5,92.4,2.5,10.5,10.5,30
2019-09-23T01:27:00+09:00,3.8,�쓌,8.6,��쓌,23.4,92.1,2,10.5,10.5,30
2019-09-23T01:28:00+09:00,3.7,�쓌,8.6,��쓌,23.5,91.9,2,10.5,10.5,30
2019-09-23T01:29:00+09:00,3.9,�쓌,10.5,�쓌,23.5,91.9,2,10.5,10.5,30
2019-09-23T01:30:00+09:00,3.9,�쓌,10.5,�쓌,23.5,91.9,1.5,10.5,10.5,30
2019-09-23T01:31:00+09:00,4,�쓌,10.5,�쓌,23.5,92,1,10.5,10.5,30
2019-09-23T01:32:00+09:00,4.1,�쓌,10.5,�쓌,23.5,92.1,1.5,11,11,30.5
2019-09-23T01:33:00+09:00,4.6,�쓌,11.1,�쓌,23.6,92,1.5,11,11,30.5
2019-09-23T01:34:00+09:00,4.9,�쓌,11.1,�쓌,23.6,91.8,1.5,11,11,30.5
2019-09-23T01:35:00+09:00,4.7,�쓌,11.1,�쓌,23.4,92,1.5,11.5,11.5,31
2019-09-23T01:36:00+09:00,4.7,�쓌,11.1,�쓌,23.3,92.7,1,11.5,11.5,31
2019-09-23T01:37:00+09:00,4.9,�쓌,11.1,�쓌,23.4,93.2,1,11.5,11.5,31
2019-09-23T01:38:00+09:00,5,�쓌,11.1,�쓌,23.4,93.2,1,11.5,11.5,31
2019-09-23T01:39:00+09:00,4.9,�쓌,11.1,�쓌,23.4,93.2,1,11,11.5,31
2019-09-23T01:40:00+09:00,5,�쓌,11.1,�쓌,23.4,93.2,1,10.5,11.5,31
2019-09-23T01:41:00+09:00,5.1,�쓌,11.1,�쓌,23.4,93.3,1.5,11,12,31.5
2019-09-23T01:42:00+09:00,,,,,,,,,,
2019-09-23T01:43:00+09:00,4.6,�쓌,10,�쓌,23.3,93.5,1,10.5,12,31.5
2019-09-23T01:44:00+09:00,,,,,,,,,,
2019-09-23T01:45:00+09:00,4.6,�쓌,10,�쓌,23.3,93.9,1,10,12.5,32
2019-09-23T01:46:00+09:00,4.8,�쓌,10,�쓌,23.3,93.8,1.5,10.5,13,32.5
2019-09-23T01:47:00+09:00,4.8,�쓌,9.4,��쓌,23.3,94,1.5,10.5,13,32.5
2019-09-23T01:48:00+09:00,4.7,�쓌,9.4,��쓌,23.2,94.3,2,10.5,13.5,33
2019-09-23T01:49:00+09:00,4.7,�쓌,9.4,��쓌,23.1,94.8,2,10,13.5,33
2019-09-23T01:50:00+09:00,4.7,�쓌,9.4,��쓌,23.3,95.1,2.5,10,14,33.5
2019-09-23T01:51:00+09:00,4.6,�쓌,9.4,��쓌,23.3,94.8,2,10,14,33.5
2019-09-23T01:52:00+09:00,4.6,�쓌,9.4,��쓌,23.3,94.5,3,11,15,34.5
2019-09-23T01:53:00+09:00,4.6,�쓌,9.4,��쓌,23.2,94.8,3.5,11,15.5,35
2019-09-23T01:54:00+09:00,4.7,�쓌,9.4,��쓌,23.2,95.1,3,11,15.5,35
2019-09-23T01:55:00+09:00,4.9,�쓌,9.4,��쓌,23.3,95.1,3,11,15.5,35
2019-09-23T01:56:00+09:00,5,�쓌,9.5,���쓌,23.4,94.7,2.5,11,15.5,35
2019-09-23T01:57:00+09:00,5,�쓌,11,�쓌,23.4,94.2,2.5,10.5,15.5,35
2019-09-23T01:58:00+09:00,5.1,�쓌,11,�쓌,23.6,94.2,2,10.5,15.5,35
2019-09-23T01:59:00+09:00,5.1,�쓌,11,�쓌,23.6,93.5,2,10.5,15.5,35
2019-09-23T02:00:00+09:00,4.9,�쓌,11,�쓌,23.7,93.3,1.5,10,15.5,35
2019-09-23T02:01:00+09:00,4.8,�쓌,11,�쓌,23.6,93.1,1.5,10,15.5,35
2019-09-23T02:02:00+09:00,4.7,�쓌,11,�쓌,23.7,93.2,0.5,10,15.5,35
2019-09-23T02:03:00+09:00,4.9,�쓌,11,�쓌,23.8,92.7,0,10,15.5,35
2019-09-23T02:04:00+09:00,4.9,�쓌,11,�쓌,23.8,92.3,0,9.5,15.5,35
2019-09-23T02:05:00+09:00,4.7,�쓌,11,�쓌,23.9,92.2,0,9.5,15.5,35
2019-09-23T02:06:00+09:00,4.5,�쓌,11,�쓌,23.9,92.1,0,9.5,15.5,35
2019-09-23T02:07:00+09:00,4.5,��쓌,11.7,��쓌,24.1,92.2,0,9.5,15.5,35
2019-09-23T02:08:00+09:00,5,��쓌,16.4,��,24.5,91.7,0,9,15.5,35
2019-09-23T02:09:00+09:00,5.4,��쓌,16.4,��,24.7,90.5,0.5,9.5,16,35.5
2019-09-23T02:10:00+09:00,5.9,��쓌,17.3,��쓌,24.7,89.9,0.5,9.5,16,35.5
2019-09-23T02:11:00+09:00,6.3,��쓌,17.3,��쓌,25.1,88.8,1,10,16.5,36
2019-09-23T02:12:00+09:00,6.5,��쓌,17.3,��쓌,25.2,87.7,1,9.5,16.5,36
2019-09-23T02:13:00+09:00,6.6,��쓌,17.3,��쓌,24.9,87.5,1,9.5,16.5,36
2019-09-23T02:14:00+09:00,6.9,��쓌,17.7,��쓌,25,87.8,1,9,16.5,36
2019-09-23T02:15:00+09:00,7.3,��쓌,18.5,��,25.5,86.8,1,8.5,16.5,36
2019-09-23T02:16:00+09:00,,,,,,,,,,
2019-09-23T02:17:00+09:00,8.1,��쓌,18.5,��,25.5,85.3,1,8,16.5,36
2019-09-23T02:18:00+09:00,8.2,��쓌,23.8,��쓌,25.6,85.3,1,8,16.5,36
2019-09-23T02:19:00+09:00,,,,,,,,,,
2019-09-23T02:20:00+09:00,9,��쓌,24.7,��쓌,26.3,82.9,0.5,7.5,16.5,36
2019-09-23T02:21:00+09:00,9.2,��쓌,24.7,��쓌,26.1,82.7,0,7,16.5,36
2019-09-23T02:22:00+09:00,9.3,��쓌,24.7,��쓌,25.9,83,0,7,16.5,36
2019-09-23T02:23:00+09:00,10.1,��쓌,28,��쓌,26.1,82.6,0,7,16.5,36
2019-09-23T02:24:00+09:00,10.5,��쓌,28,��쓌,26.1,82.7,0,7,16.5,36
2019-09-23T02:25:00+09:00,10.2,��쓌,28,��쓌,26.1,82.4,0,6.5,16.5,36
2019-09-23T02:26:00+09:00,10.3,��쓌,28,��쓌,26.1,82.5,0,6,16.5,36
2019-09-23T02:27:00+09:00,10,��쓌,28,��쓌,26,82.6,0,6,16.5,36
2019-09-23T02:28:00+09:00,9.7,��쓌,28,��쓌,26.1,82.8,0,6,16.5,36
2019-09-23T02:29:00+09:00,9.4,��쓌,28,��쓌,26,83.1,0,6,16.5,36
2019-09-23T02:30:00+09:00,9.2,��쓌,28,��쓌,26.1,83.1,0,6,16.5,36
2019-09-23T02:31:00+09:00,9.3,��쓌,28,��쓌,26.1,83.3,0,6,16.5,36
2019-09-23T02:32:00+09:00,9.8,��쓌,28,��쓌,26,83.6,0,5.5,16.5,36
2019-09-23T02:33:00+09:00,9.3,��쓌,22.9,��쓌,25.9,84.4,0,5.5,16.5,36
2019-09-23T02:34:00+09:00,9.2,��쓌,19.7,��쓌,25.7,84.8,0,5.5,16.5,36
2019-09-23T02:35:00+09:00,9.6,��쓌,19.7,��쓌,25.6,85.6,0,5,16.5,36
2019-09-23T02:36:00+09:00,9.4,��쓌,19.7,��쓌,25.6,86.2,0.5,5.5,17,36.5
2019-09-23T02:37:00+09:00,9.7,��쓌,19.7,��쓌,25.5,86.7,0.5,5.5,17,36.5
2019-09-23T02:38:00+09:00,9.7,��쓌,19.7,��쓌,25.3,87.3,0.5,5.5,17,36.5
2019-09-23T02:39:00+09:00,9.4,��쓌,16.6,��,25.2,88.3,1,6,17.5,37
2019-09-23T02:40:00+09:00,9.3,��쓌,16.6,��,25.3,88.6,1,6,17.5,37
2019-09-23T02:41:00+09:00,8.8,��쓌,16.6,��,25.3,88.8,1,5.5,17.5,37
2019-09-23T02:42:00+09:00,8.6,��쓌,16.4,��쐼,25.5,88.3,1,5.5,17.5,37
2019-09-23T02:43:00+09:00,8.4,��쓌,16.5,��,25.5,88.2,1.5,6,18,37.5
2019-09-23T02:44:00+09:00,8.1,��쓌,16.5,��,25.5,87.9,1.5,5.5,18,37.5
2019-09-23T02:45:00+09:00,7.8,��쓌,16.5,��,25.5,87.6,2,6,18.5,38
2019-09-23T02:46:00+09:00,7.9,��쓌,16.5,��,25.5,87.9,1.5,5.5,18.5,38
2019-09-23T02:47:00+09:00,7.7,��쓌,16.5,��,25.5,87.9,1.5,5.5,18.5,38
2019-09-23T02:48:00+09:00,8,��쓌,17.2,�쓌,25.7,87.2,2,5.5,19,38.5
2019-09-23T02:49:00+09:00,8.4,��쓌,17.2,�쓌,25.7,87.1,1.5,5.5,19,38.5
2019-09-23T02:50:00+09:00,,,,,,,,,,
2019-09-23T02:51:00+09:00,8.8,��쓌,17.2,�쓌,25.9,86.2,1.5,5,19,38.5
2019-09-23T02:52:00+09:00,8.9,��쓌,17.2,�쓌,25.8,86,1.5,4,19,38.5
2019-09-23T02:53:00+09:00,9.1,��쓌,17.2,�쓌,25.7,86.4,1.5,4,19.5,39
2019-09-23T02:54:00+09:00,,,,,,,,,,
2019-09-23T02:55:00+09:00,9.7,��쓌,17.5,�쓌,26.1,85.3,1,4,19.5,39
2019-09-23T02:56:00+09:00,9.9,��쓌,17.5,�쓌,26.1,85.1,1,4,19.5,39
2019-09-23T02:57:00+09:00,10.2,��쓌,17.5,�쓌,26.2,84.4,1,4,19.5,39
2019-09-23T02:58:00+09:00,10.2,��쓌,18.2,��,26.3,84.2,0.5,4,19.5,39
2019-09-23T02:59:00+09:00,10.3,��쓌,18.3,�쓌,26.3,84,0.5,4,19.5,39
2019-09-23T03:00:00+09:00,10.3,��쓌,18.3,�쓌,26.3,84,0.5,4,19.5,39
2019-09-23T03:01:00+09:00,9.8,��쓌,18.3,�쓌,26.2,84,0.5,4,19.5,39
2019-09-23T03:02:00+09:00,9.3,��쓌,18.3,�쓌,26.3,83.7,0.5,4,19.5,39
2019-09-23T03:03:00+09:00,9.5,��쓌,18.3,�쓌,26.3,83.6,0,4,19.5,39
2019-09-23T03:04:00+09:00,9.2,��쓌,18.3,�쓌,26.3,83.5,0,4,19.5,39
2019-09-23T03:05:00+09:00,8.6,��쓌,18.3,�쓌,26.3,83.3,0,4,19.5,39
2019-09-23T03:06:00+09:00,8.5,��쓌,18.3,�쓌,26.4,82.9,0,4,19.5,39
2019-09-23T03:07:00+09:00,8,��쓌,18.3,�쓌,26.4,82.8,0,4,19.5,39
2019-09-23T03:08:00+09:00,7.5,��쓌,18.3,�쓌,26.3,82.9,0,4,19.5,39
2019-09-23T03:09:00+09:00,7.1,��쓌,16.4,��쓌,26.3,83.1,0,3.5,19.5,39
2019-09-23T03:10:00+09:00,7.2,��쓌,16.4,��쓌,26.4,83.1,0,3.5,19.5,39
2019-09-23T03:11:00+09:00,7.7,��쓌,20.6,�쓌,26.4,83.1,0,3,19.5,39
2019-09-23T03:12:00+09:00,8.6,��쓌,22.2,�쓌,26.6,82.2,0,3,19.5,39
2019-09-23T03:13:00+09:00,8.3,��쓌,22.2,�쓌,26.6,81.9,0,3,19.5,39
2019-09-23T03:14:00+09:00,8.4,��쓌,22.2,�쓌,26.5,82.3,0,3,19.5,39
2019-09-23T03:15:00+09:00,8.5,��쓌,22.2,�쓌,26.5,82.2,0,3,19.5,39
2019-09-23T03:16:00+09:00,8.7,��쓌,22.2,�쓌,26.5,82,0,3,19.5,39
2019-09-23T03:17:00+09:00,8.7,��쓌,22.2,�쓌,26.6,81.8,0,3,19.5,39
2019-09-23T03:18:00+09:00,9.1,��쓌,22.2,�쓌,26.6,81.2,0,3,19.5,39
2019-09-23T03:19:00+09:00,9.1,��쓌,22.2,�쓌,26.6,81.1,0,3,19.5,39
2019-09-23T03:20:00+09:00,8.9,��쓌,22.2,�쓌,26.7,80.2,0,3,19.5,39
2019-09-23T03:21:00+09:00,8.5,��쓌,22.2,�쓌,26.7,80.2,0,3,19.5,39
2019-09-23T03:22:00+09:00,8.3,��쓌,19.2,��쓌,26.6,80.1,0,3,19.5,39
2019-09-23T03:23:00+09:00,8.6,��쓌,19.2,��쓌,26.8,79.3,0,3,19.5,39
2019-09-23T03:24:00+09:00,9.2,��쓌,22,�쓌,26.9,78.5,0,3,19.5,39
2019-09-23T03:25:00+09:00,9.7,��쓌,22,�쓌,27.1,77.7,0,3,19.5,39
2019-09-23T03:26:00+09:00,,,,,,,,,,
2019-09-23T03:27:00+09:00,10.3,��쓌,23.9,�쓌,27,77.6,0,3,19.5,39
2019-09-23T03:28:00+09:00,10.7,��쓌,23.9,�쓌,27.1,77.2,0,3,19.5,39
2019-09-23T03:29:00+09:00,,,,,,,,,,
2019-09-23T03:30:00+09:00,11.2,��쓌,23.9,�쓌,27,77.4,0,3,19.5,39
2019-09-23T03:31:00+09:00,11.5,��쓌,23.9,�쓌,27,77.4,0,3,19.5,39
2019-09-23T03:32:00+09:00,11.2,��쓌,23.9,�쓌,26.9,77.5,0,3,19.5,39
2019-09-23T03:33:00+09:00,11.3,��쓌,23.9,�쓌,27,77.2,0,3,19.5,39
2019-09-23T03:34:00+09:00,11.3,��쓌,23.9,�쓌,27.1,77.1,0,3,19.5,39
2019-09-23T03:35:00+09:00,10.7,��쓌,23.9,�쓌,27,77.1,0,3,19.5,39
2019-09-23T03:36:00+09:00,10.4,��쓌,23.9,�쓌,26.9,77.1,0,2.5,19.5,39
2019-09-23T03:37:00+09:00,9.8,��쓌,21.7,��쓌,26.9,77.4,0,2.5,19.5,39
2019-09-23T03:38:00+09:00,9.1,��쓌,20.4,�쓌,27,77,0,2.5,19.5,39
2019-09-23T03:39:00+09:00,9.3,��쓌,24.1,��쓌,27.1,76.6,0,2,19.5,39
2019-09-23T03:40:00+09:00,9.4,��쓌,24.1,��쓌,27.2,76,0,2,19.5,39
2019-09-23T03:41:00+09:00,9.4,��쓌,24.1,��쓌,27.2,75.6,0,2,19.5,39
2019-09-23T03:42:00+09:00,10,��쓌,25.3,��쓌,27.2,75.5,0,2,19.5,39
2019-09-23T03:43:00+09:00,9.5,��쓌,25.3,��쓌,27.3,75.1,0,1.5,19.5,39
2019-09-23T03:44:00+09:00,9.3,��쓌,25.3,��쓌,27.3,74.6,0,1.5,19.5,39
2019-09-23T03:45:00+09:00,10.1,��쓌,25.3,��쓌,27.3,74.8,0,1,19.5,39
2019-09-23T03:46:00+09:00,10.6,��쓌,25.3,��쓌,27.3,74.7,0,1,19.5,39
2019-09-23T03:47:00+09:00,10.9,��쓌,25.3,��쓌,27.2,75,0,1,19.5,39
2019-09-23T03:48:00+09:00,11.5,��쓌,25.3,��쓌,27.3,74.5,0,0.5,19.5,39
2019-09-23T03:49:00+09:00,11.7,��쓌,25.3,��쓌,27.3,74.6,0,0.5,19.5,39
2019-09-23T03:50:00+09:00,11.4,��쓌,25.3,��쓌,27.2,74.8,0,0.5,19.5,39
2019-09-23T03:51:00+09:00,11.4,��쓌,25.3,��쓌,27.1,75.2,0,0.5,19.5,39
2019-09-23T03:52:00+09:00,10.8,��쓌,25,��쓌,27.1,75.5,0,0.5,19.5,39
2019-09-23T03:53:00+09:00,11.1,��쓌,25,��쓌,27.3,75,0,0,19.5,39
2019-09-23T03:54:00+09:00,11.3,��쓌,25,��쓌,27.3,74.8,0,0,19.5,39
2019-09-23T03:55:00+09:00,10.6,��쓌,23.2,��쓌,27.3,74.9,0,0,19.5,39
2019-09-23T03:56:00+09:00,10.4,��쓌,23.2,��쓌,27.3,75,0,0,19.5,39
2019-09-23T03:57:00+09:00,10.4,��쓌,23.2,��쓌,27.3,75.1,0,0,19.5,39
2019-09-23T03:58:00+09:00,10.3,��쓌,20.5,��,27.3,75.1,0,0,19.5,39
2019-09-23T03:59:00+09:00,10.1,��쓌,20.8,��쓌,27.3,75,0,0,19.5,39
2019-09-23T04:00:00+09:00,,,,,,,,,,
2019-09-23T04:01:00+09:00,10.6,��쓌,20.8,��쓌,27.4,74.8,0,0,19.5,39
2019-09-23T04:02:00+09:00,,,,,,,,,,
2019-09-23T04:03:00+09:00,10.9,��쓌,23.8,��쓌,27.4,74.9,0,0,19.5,39
2019-09-23T04:04:00+09:00,10.4,��쓌,23.8,��쓌,27.3,75.2,0,0,19.5,39
2019-09-23T04:05:00+09:00,10.3,��쓌,23.8,��쓌,27.4,75,0,0,19.5,39
2019-09-23T04:06:00+09:00,10.1,��쓌,23.8,��쓌,27.4,75,0,0,19.5,39
2019-09-23T04:07:00+09:00,10.2,��쓌,23.8,��쓌,27.4,75.1,0,0,19.5,39
2019-09-23T04:08:00+09:00,9.9,��쓌,23.8,��쓌,27.4,75.1,0,0,19.5,39
2019-09-23T04:09:00+09:00,9.6,��쓌,23.8,��쓌,27.4,75.2,0,0,19.5,39
2019-09-23T04:10:00+09:00,9.8,��쓌,23.8,��쓌,27.4,75.2,0,0,19.5,39
2019-09-23T04:11:00+09:00,9.5,��쓌,23.8,��쓌,27.4,75.3,0,0,19.5,39
2019-09-23T04:12:00+09:00,9.3,��쓌,21.1,��쓌,27.4,75.2,0,0,19.5,39
2019-09-23T04:13:00+09:00,9.1,��쓌,21.1,��쓌,27.4,75.3,0,0,19.5,39
2019-09-23T04:14:00+09:00,9.5,��쓌,21.1,��쓌,27.4,75.5,0,0,19.5,39
2019-09-23T04:15:00+09:00,9.9,��쓌,21.1,��쓌,27.4,75.4,0,0,19.5,39
2019-09-23T04:16:00+09:00,9.7,��쓌,21.1,��쓌,27.4,75.6,0,0,19.5,39
2019-09-23T04:17:00+09:00,9.2,��쓌,21.1,��쓌,27.4,75.7,0,0,19.5,39
2019-09-23T04:18:00+09:00,9,��쓌,21.1,��쓌,27.3,75.9,0,0,19.5,39
2019-09-23T04:19:00+09:00,9.4,��쓌,21.1,��쓌,27.3,76.1,0,0,19.5,39
2019-09-23T04:20:00+09:00,9,��쓌,20.6,�쓌,27.4,76,0,0,19.5,39
2019-09-23T04:21:00+09:00,8.7,��쓌,20.6,�쓌,27.4,75.9,0,0,19.5,39
2019-09-23T04:22:00+09:00,8.4,��쓌,20.6,�쓌,27.4,76.1,0,0,19.5,39
2019-09-23T04:23:00+09:00,8.4,��쓌,20.6,�쓌,27.4,76.3,0,0,19.5,39
2019-09-23T04:24:00+09:00,8.4,��쓌,20.6,�쓌,27.4,76.5,0,0,19.5,39
2019-09-23T04:25:00+09:00,8.2,��쓌,16.7,��쓌,27.4,76.8,0,0,19.5,39
2019-09-23T04:26:00+09:00,8.5,��쓌,16.7,��쓌,27.4,76.9,0,0,19.5,39
2019-09-23T04:27:00+09:00,8.8,��쓌,17,�쓌,27.5,76.6,0,0,19.5,39
2019-09-23T04:28:00+09:00,8.9,��쓌,17,�쓌,27.5,76.9,0,0,19.5,39
2019-09-23T04:29:00+09:00,8.5,��쓌,17,�쓌,27.4,77,0,0,19.5,39
2019-09-23T04:30:00+09:00,8.7,��쓌,20.1,��,27.4,77.3,0,0,19.5,39
2019-09-23T04:31:00+09:00,9.1,��쓌,20.1,��,27.5,77.5,0,0,19.5,39
2019-09-23T04:32:00+09:00,9.1,��쓌,20.1,��,27.5,77.5,0,0,19.5,39
2019-09-23T04:33:00+09:00,8.7,��쓌,20.1,��,27.4,77.7,0,0,19.5,39
2019-09-23T04:34:00+09:00,8,��쓌,20.1,��,27.3,77.8,0,0,19.5,39
2019-09-23T04:35:00+09:00,,,,,,,,,,
2019-09-23T04:36:00+09:00,7.4,��,20.1,��,27.3,78,0,0,19.5,39
2019-09-23T04:37:00+09:00,7.2,��,20.1,��,27.4,77.6,0,0,19.5,39
2019-09-23T04:38:00+09:00,7.2,��,20.1,��,27.4,77.7,0,0,19.5,39
2019-09-23T04:39:00+09:00,7.1,��,20.1,��,27.4,77.8,0,0,19.5,39
2019-09-23T04:40:00+09:00,7,��,19.1,��,27.4,77.6,0,0,19.5,39
2019-09-23T04:41:00+09:00,6.8,��쓌,18.8,�쓌,27.5,77.3,0,0,19.5,39
2019-09-23T04:42:00+09:00,7.5,��쓌,22.8,��쓌,27.5,77,0,0,19.5,39
2019-09-23T04:43:00+09:00,8,��쓌,22.8,��쓌,27.6,76.9,0,0,19.5,39
2019-09-23T04:44:00+09:00,8.6,��쓌,22.8,��쓌,27.6,76.8,0,0,19.5,39
2019-09-23T04:45:00+09:00,8.8,��쓌,22.8,��쓌,27.6,76.8,0,0,19.5,39
2019-09-23T04:46:00+09:00,9,��쓌,22.8,��쓌,27.5,77,0,0,19.5,39
2019-09-23T04:47:00+09:00,9.3,��쓌,22.8,��쓌,27.5,77.2,0,0,19.5,39
2019-09-23T04:48:00+09:00,9.2,��쓌,22.8,��쓌,27.5,77.4,0,0,19.5,39
2019-09-23T04:49:00+09:00,9,��쓌,22.8,��쓌,27.4,77.5,0,0,19.5,39
2019-09-23T04:50:00+09:00,9.2,��쓌,22.9,��쓌,27.5,77.1,0,0,19.5,39
2019-09-23T04:51:00+09:00,9.4,��쓌,22.9,��쓌,27.5,77.2,0,0,19.5,39
2019-09-23T04:52:00+09:00,8.7,��쓌,22.9,��쓌,27.5,77,0,0,19.5,39
2019-09-23T04:53:00+09:00,8.5,��쓌,22.9,��쓌,27.5,76.8,0,0,19.5,39
2019-09-23T04:54:00+09:00,8.8,��쓌,22.9,��쓌,27.5,76.7,0,0,19.5,39
2019-09-23T04:55:00+09:00,8.8,��쓌,22.9,��쓌,27.5,77,0,0,19.5,39
2019-09-23T04:56:00+09:00,8.6,��쓌,22.9,��쓌,27.5,76.8,0,0,19.5,39
2019-09-23T04:57:00+09:00,8.6,��쓌,22.9,��쓌,27.5,76.5,0,0,19.5,39
2019-09-23T04:58:00+09:00,8.4,��쓌,22.9,��쓌,27.4,76.4,0,0,19.5,39
2019-09-23T04:59:00+09:00,8.9,��쓌,22.9,��쓌,27.4,76.5,0,0,19.5,39
2019-09-23T05:00:00+09:00,8.7,��쓌,20.6,��,27.4,76.1,0,0,19.5,39
2019-09-23T05:01:00+09:00,8.5,��쓌,17.7,�쓌,27.4,76,0,0,19.5,39
2019-09-23T05:02:00+09:00,8.8,��쓌,17.7,�쓌,27.4,75.9,0,0,19.5,39
2019-09-23T05:03:00+09:00,8.8,��쓌,17.7,�쓌,27.5,75.9,0,0,19.5,39
2019-09-23T05:04:00+09:00,8.4,��쓌,17.7,�쓌,27.4,75.8,0,0,19.5,39
2019-09-23T05:05:00+09:00,8.4,��쓌,17.7,�쓌,27.4,75.9,0,0,19.5,39
2019-09-23T05:06:00+09:00,,,,,,,,,,
2019-09-23T05:07:00+09:00,8.7,��쓌,17.7,�쓌,27.3,76,0,0,19.5,39
2019-09-23T05:08:00+09:00,,,,,,,,,,
2019-09-23T05:09:00+09:00,8.4,��쓌,17.7,�쓌,27.3,76.3,0,0,19.5,39
2019-09-23T05:10:00+09:00,8.2,��쓌,15.2,��쓌,27.3,76.3,0,0,19.5,39
2019-09-23T05:11:00+09:00,8.2,��쓌,16.7,��쓌,27.3,76.4,0,0,19.5,39
2019-09-23T05:12:00+09:00,8.1,��쓌,16.7,��쓌,27.4,76.1,0,0,19.5,39
2019-09-23T05:13:00+09:00,8.2,��쓌,16.7,��쓌,27.4,76.3,0,0,19.5,39
2019-09-23T05:14:00+09:00,8,��쓌,16.7,��쓌,27.3,76.5,0,0,19.5,39
2019-09-23T05:15:00+09:00,8.1,��쓌,16.7,��쓌,27.3,76.4,0,0,19.5,39
2019-09-23T05:16:00+09:00,7.8,��쓌,16.7,��쓌,27.4,76.1,0,0,19.5,39
2019-09-23T05:17:00+09:00,7.3,��쓌,16.7,��쓌,27.3,76.3,0,0,19.5,39
2019-09-23T05:18:00+09:00,7,��쓌,16.7,��쓌,27.2,76.7,0,0,19.5,39
2019-09-23T05:19:00+09:00,6.7,��쓌,16.7,��쓌,27.1,77.1,0,0,19.5,39
2019-09-23T05:20:00+09:00,6.1,��,16.7,��쓌,27.2,77,0,0,19.5,39
2019-09-23T05:21:00+09:00,5.6,��,12.8,��쓌,27.2,77.1,0,0,19.5,39
2019-09-23T05:22:00+09:00,5.5,��,14.3,��,27.3,76.8,0,0,19.5,39
2019-09-23T05:23:00+09:00,5.5,��,14.3,��,27.4,76.2,0,0,19.5,39
2019-09-23T05:24:00+09:00,5.6,��,14.3,��,27.4,76,0,0,19.5,39
2019-09-23T05:25:00+09:00,5.3,��,14.3,��,27.3,76.4,0,0,19.5,39
2019-09-23T05:26:00+09:00,5.4,��,14.3,��,27.3,76.8,0,0,19.5,39
2019-09-23T05:27:00+09:00,5.7,��쓌,14.3,��,27.2,77,0,0,19.5,39
2019-09-23T05:28:00+09:00,5.9,��쓌,14.3,��,27.2,77.1,0,0,19.5,39
2019-09-23T05:29:00+09:00,6.3,��쓌,14.3,��,27.2,77.2,0,0,19.5,39
2019-09-23T05:30:00+09:00,6.8,��쓌,14.3,��,27.3,76.8,0,0,19.5,39
2019-09-23T05:31:00+09:00,6.8,��쓌,14.3,��,27.5,75.9,0,0,19.5,39
2019-09-23T05:32:00+09:00,6.1,��쓌,13.4,��쓌,27.5,75.9,0,0,19.5,39
2019-09-23T05:33:00+09:00,5.5,��쓌,13.4,��쓌,27.4,75.9,0,0,19.5,39
2019-09-23T05:34:00+09:00,5,��,13.4,��쓌,27.4,76.1,0,0,19.5,39
2019-09-23T05:35:00+09:00,4.5,��쓌,13.4,��쓌,27.3,76.4,0,0,19.5,39
2019-09-23T05:36:00+09:00,4.2,��쓌,11.3,��쓌,27.3,76.5,0,0,19.5,39
2019-09-23T05:37:00+09:00,4.3,��쓌,12.6,��쓌,27.2,76.9,0,0,19.5,39
2019-09-23T05:38:00+09:00,4.5,��쓌,14.7,��쓌,27.3,76.9,0,0,19.5,39
2019-09-23T05:39:00+09:00,4.4,��,14.7,��쓌,27.3,76.6,0,0,19.5,39
2019-09-23T05:40:00+09:00,,,,,,,,,,
2019-09-23T05:41:00+09:00,4.5,��,14.7,��쓌,27.4,76.2,0,0,19.5,39
2019-09-23T05:42:00+09:00,4.9,��쓌,14.7,��쓌,27.3,76.2,0,0,19.5,39
2019-09-23T05:43:00+09:00,5.4,��쓌,14.7,��쓌,27.3,76.4,0,0,19.5,39
2019-09-23T05:44:00+09:00,5.5,��쓌,14.7,��쓌,27.3,76.4,0,0,19.5,39
2019-09-23T05:45:00+09:00,5.8,��쓌,14.7,��쓌,27.3,76.6,0,0,19.5,39
2019-09-23T05:46:00+09:00,5.7,��쓌,14.7,��쓌,27.3,76.5,0,0,19.5,39
2019-09-23T05:47:00+09:00,5.1,��쓌,14.7,��쓌,27.2,76.8,0,0,19.5,39
2019-09-23T05:48:00+09:00,4.9,��쓌,12.8,��,27.3,76.5,0,0,19.5,39
2019-09-23T05:49:00+09:00,4.7,��쓌,12.4,���쓌,27.3,76.5,0,0,19.5,39
2019-09-23T05:50:00+09:00,4.6,��쓌,12.4,���쓌,27.3,76.4,0,0,19.5,39
2019-09-23T05:51:00+09:00,4.4,��쓌,12.4,���쓌,27.3,76.5,0,0,19.5,39
2019-09-23T05:52:00+09:00,4.3,��,10.6,��쓌,27.3,76.4,0,0,19.5,39
2019-09-23T05:53:00+09:00,4,��,10.6,��쓌,27.4,75.8,0,0,19.5,39
2019-09-23T05:54:00+09:00,4,��,10.6,��쓌,27.3,76.3,0,0,19.5,39
2019-09-23T05:55:00+09:00,4.1,��,10.6,��쓌,27.4,76.1,0,0,19.5,39
2019-09-23T05:56:00+09:00,4.4,��,11.1,��,27.3,76.2,0,0,19.5,39
2019-09-23T05:57:00+09:00,4.7,��,11.1,��,27.3,75.9,0,0,19.5,39
2019-09-23T05:58:00+09:00,4.4,��,11.1,��,27.4,75.8,0,0,19.5,39
2019-09-23T05:59:00+09:00,4.1,��,11.1,��,27.3,76,0,0,19.5,39
2019-09-23T06:00:00+09:00,4,��,11.1,��,27.2,76.2,0,0,19.5,39
2019-09-23T06:01:00+09:00,4,��,11.1,��,27.3,76,0,0,19.5,39
2019-09-23T06:02:00+09:00,4,��쓌,11.1,��,27.3,76.2,0,0,19.5,39
2019-09-23T06:03:00+09:00,4.2,��쓌,11.1,��,27.2,76.3,0,0,19.5,39
2019-09-23T06:04:00+09:00,4.5,��쓌,15.2,�쓌,27.2,76.2,0,0,19.5,39
2019-09-23T06:05:00+09:00,4.6,��쓌,15.2,�쓌,27.2,76.2,0,0,19.5,39
2019-09-23T06:06:00+09:00,4.5,��쓌,15.2,�쓌,27.2,76.3,0,0,19.5,39
2019-09-23T06:07:00+09:00,4.9,��쓌,15.2,�쓌,27.3,75.5,0,0,19.5,39
2019-09-23T06:08:00+09:00,5,�쓌,15.2,�쓌,27.5,74.7,0,0,19.5,39
2019-09-23T06:09:00+09:00,5.4,��쓌,15.2,�쓌,27.5,74.8,0,0,19.5,39
2019-09-23T06:10:00+09:00,5.9,��쓌,15.2,�쓌,27.4,74.8,0,0,19.5,39
2019-09-23T06:11:00+09:00,6.2,��쓌,15.2,�쓌,27.4,74.9,0,0,19.5,39
2019-09-23T06:12:00+09:00,,,,,,,,,,
2019-09-23T06:13:00+09:00,6.3,��쓌,15.2,�쓌,27.3,75.4,0,0,19.5,39
2019-09-23T06:14:00+09:00,6,��쓌,14.5,��,27.2,75.6,0,0,19.5,39
2019-09-23T06:15:00+09:00,6.2,��쓌,14.5,��,27.2,75.7,0,0,19.5,39
2019-09-23T06:16:00+09:00,6.3,��쓌,14.5,��,27.2,75.7,0,0,19.5,39